Weather in Raseiniai

Lithuania     55°22′48″N   23°06′53″E
temp.,
°C
wind,
m/s
gust,
m/s
humid.,
%
clouds,
%
prec.,
mm/h
press.,
hPa
HPBL,
m
26 july, mon
mon2600:00+18e376619 0.0 1018107
03:00+17se347841 0.0 101853
06:00+17ese3486100 0.0 101866
09:00+22se4667100 0.0 1018311
12:00+25se4656100 0.0 1018726
15:00+27se574599 0.0 10172019
18:00+27ese574976 0.0 10161589
21:00+23ese5116676 0.0 1016333
27 july, tue
tue2700:00+20ese4117010 0.0 1016238
03:00+18ese4107997 0.0 1015210
06:00+19ese51272100 0.0 1014365
09:00+17e41094100 2.2 1013324
12:00+21ese698274 1.0 1013713
15:00+24se5776100 2.6 10111013
18:00+22ssw4687100 6.0 1010531
21:00+20ssw3596100 7.3 1010252
28 july, wed
wed2800:00+18wsw3698100 0.1 1011178
03:00+17wsw399995 0.1 1010279
06:00+17wsw289951 0.0 1010251
09:00+21wsw51087100 0.0 1010556
12:00+24w695717 0.0 10101313
15:00+26wsw6950100 0.0 10102352
18:00+24w586210 0.6 10101009
21:00+20w3776100 0.7 1010151
29 july, thu
thu2900:00+16wsw37855 0.0 1011131
03:00+16wsw31188100 0.0 1011317
06:00+15sw389547 0.0 1011202
09:00+20wsw58736 0.0 1011675
12:00+24w575470 0.0 10111746
15:00+23wsw4659100 0.1 1011893
18:00+22w48715 0.8 1010457
21:00+19w23771 1.1 101035
30 july, fri
fri3000:00+18w1181100 0.0 101013
03:00+16ssw128789 0.0 100911
06:00+17sse118538 0.0 100824
09:00+19s3881100 0.0 1007287
12:00+25sw6104966 0.0 10061779
15:00+25ssw6954100 0.1 10051627
18:00+21sw61086100 1.6 1004824
21:00+19w2592100 4.0 1004103